Location: Ebersheim
(48.3033°N, 7.4991°E)
Time: 21:45:39
(UTC+00:00)

Cosmos 405 - Pass Details

Date: 27 February 2020
Orbit: 452 x 465 km, 81.3° (Epoch: 29 March)

Event Time Altitude Azimuth Distance (km) Brightness Sun altitude
Rises 18:46:50 0° 342° (NNW) 2,507 7.0 -16.8°
Reaches altitude 10° 18:49:00 10° 335° (NNW) 1,627 6.1 -17.2°
Maximum altitude 18:52:22 42° 264° (W) 680 4.3 -17.8°
Drops below altitude 10° 18:55:43 10° 193° (SSW) 1,616 5.8 -18.3°
Sets 18:57:51 0° 186° (S) 2,487 6.6 -18.7°
